Weather History for Barking Sands, HI

Change the Weather History Date:

Saturday, August 30, 2014

  Actual Average Record
Temperature  
Mean Temperature 78 °F -  
Max Temperature 84 °F 89 °F 92 °F (1965)
Min Temperature 73 °F 69 °F 66 °F (1952)
Cooling Degree Days 14    
Growing Degree Days 28 (Base 50)    
Moisture  
Dew Point 67 °F    
Average Humidity 66    
Maximum Humidity 76    
Minimum Humidity 51    
Precipitation  
Precipitation 0.00 in - - ()
Sea Level Pressure  
Sea Level Pressure 29.94 in    
Wind  
Wind Speed 5 mph (ENE)    
Max Wind Speed 13 mph    
Max Gust Speed -    
Visibility 10 miles    
Events      
Averages and records for this station are not official NWS values.
T = Trace of Precipitation, MM = Missing Value Source: NWS Daily Summary

Daily Weather History Graph

Daily Weather History Graph

Search for Another Location

Airport:

Trip Planner

Search our weather history database for the weather conditions in past years. The results will help you decide how hot, cold, wet, or windy it might be!

Date:

Astronomy

Aug. 30, 2014 Rise Set
Actual Time 6:21 AM HST 6:57 PM HST
Civil Twilight 5:58 AM HST 7:20 PM HST
Nautical Twilight 5:32 AM HST 7:46 PM HST
Astronomical Twilight 5:05 AM HST 8:13 PM HST
Moon 10:41 AM HST (8/30) 10:20 PM HST (8/30)
Length of Visible Light 13h 21m
Length of Day
12h 35m
Waxing Crescent, 25% of the Moon is Illuminated
Aug 30
Waxing Crescent
Sep 2
First Quarter
Sep 8
Full
Sep 15
Last Quarter
Sep 23
New

Hourly Weather History & Observations

Time (HST) Temp. Heat Index Dew Point Humidity Pressure Visibility Wind Dir Wind Speed Gust Speed Precip Events Conditions
12:56 AM 73.9 °F - 61.0 °F 64% 29.93 in 10.0 mi East 4.6 mph - N/A   Clear
1:56 AM 73.0 °F - 63.0 °F 71% 29.92 in 10.0 mi ENE 4.6 mph - N/A   Clear
2:56 AM 73.0 °F - 64.0 °F 73% 29.92 in 10.0 mi ENE 4.6 mph - N/A   Clear
3:56 AM 73.0 °F - 64.0 °F 73% 29.91 in 10.0 mi ENE 5.8 mph - N/A   Clear
4:56 AM 73.0 °F - 63.0 °F 71% 29.92 in 10.0 mi ENE 4.6 mph - N/A   Clear
5:56 AM 73.0 °F - 63.0 °F 71% 29.93 in 10.0 mi ENE 5.8 mph - N/A   Clear
6:56 AM 73.9 °F - 62.1 °F 66% 29.95 in 10.0 mi East 4.6 mph - N/A   Clear
7:56 AM 80.1 °F 81.9 °F 64.9 °F 60% 29.96 in 10.0 mi Calm Calm - N/A   Clear
8:56 AM 81.0 °F 83.3 °F 66.9 °F 62% 29.97 in 10.0 mi SSW 5.8 mph - N/A   Clear
9:56 AM 82.0 °F 84.9 °F 68.0 °F 62% 29.98 in 10.0 mi WSW 6.9 mph - N/A   Clear
10:56 AM 82.9 °F 85.8 °F 68.0 °F 60% 29.98 in 10.0 mi West 5.8 mph - N/A   Clear
11:56 AM 84.9 °F 88.2 °F 68.0 °F 57% 29.97 in 10.0 mi NW 8.1 mph - N/A   Clear
12:56 PM 84.9 °F 86.6 °F 64.9 °F 51% 29.96 in 10.0 mi WNW 6.9 mph - N/A   Clear
1:56 PM 84.9 °F 88.8 °F 69.1 °F 59% 29.94 in 10.0 mi NW 9.2 mph - N/A   Partly Cloudy
2:56 PM 84.0 °F 89.0 °F 71.1 °F 65% 29.92 in 10.0 mi NW 12.7 mph - N/A   Mostly Cloudy
3:56 PM 84.0 °F 87.8 °F 69.1 °F 61% 29.91 in 10.0 mi WNW 4.6 mph - N/A   Overcast
4:56 PM 82.9 °F 86.5 °F 69.1 °F 63% 29.90 in 10.0 mi Calm Calm - N/A   Overcast
5:56 PM 82.9 °F 87.0 °F 70.0 °F 65% 29.91 in 10.0 mi SSE 5.8 mph - N/A   Overcast
6:24 PM 82.4 °F 86.3 °F 69.8 °F 66% 29.91 in 10.0 mi South 8.1 mph - N/A   Mostly Cloudy
6:56 PM 81.0 °F 84.4 °F 70.0 °F 69% 29.93 in 10.0 mi SSE 4.6 mph - N/A   Clear
7:56 PM 79.0 °F - 68.0 °F 69% 29.95 in 10.0 mi ENE 3.5 mph - N/A   Clear
8:56 PM 78.1 °F - 68.0 °F 71% 29.96 in 10.0 mi NNE 5.8 mph - N/A   Clear
9:56 PM 79.0 °F - 68.0 °F 69% 29.97 in 10.0 mi NE 3.5 mph - N/A   Clear
10:56 PM 75.0 °F - 66.9 °F 76% 29.97 in 10.0 mi SE 4.6 mph - N/A   Clear
11:56 PM 75.0 °F - 63.0 °F 66% 29.96 in 10.0 mi East 6.9 mph - N/A   Clear